Lid_Strength_Index
4 4 4 4 4 4 4 4 4 4 4 4 4 4 4 4 4 7 10 7 5 2 2 5 5 6 7 8 8 9 14 17 16 14 13 10 10 9 7 8 8 6 5 4 3
4 4 4 4 4 4 4 4 4 4 4 4 4 4 4 4 7 9 5 3 2 0 4 6 7 7 9 9 8 10 15 14 11 11 12 11 10 8 9 9 8 6 4 3 3
5 5 4 4 4 4 4 4 4 4 4 4 4 4 4 5 10 9 1 2 1 0 4 7 8 9 12 10 10 10 12 10 10 9 10 10 9 8 9 10 9 6 5 4 3
5 5 5 5 5 5 5 5 4 4 4 4 4 5 4 7 15 5 -1 -1 -2 2 6 8 9 12 13 12 9 11 9 9 8 8 9 10 10 9 10 9 8 7 4 4 4
5 5 5 5 5 4 4 5 4 4 4 5 5 5 7 11 10 4 -1 -1 1 3 6 8 11 12 13 12 11 11 9 8 8 8 8 7 10 10 10 8 8 7 7 4 4
5 5 5 5 4 4 4 5 5 5 5 5 5 5 9 13 8 5 1 2 5 6 7 8 8 9 12 12 12 10 10 9 8 8 8 9 9 11 9 8 8 8 6 5 4
5 5 5 5 5 5 5 5 5 5 4 4 5 6 9 11 6 6 4 5 5 4 5 4 5 6 9 11 9 10 12 10 9 10 10 9 10 10 9 9 9 9 8 7 7
5 5 5 5 5 5 5 5 5 4 4 4 5 7 11 6 6 7 7 7 7 6 5 5 5 6 8 8 8 10 11 14 11 9 9 9 12 8 7 9 9 9 9 8 11
5 5 5 5 5 5 5 5 5 4 4 4 7 9 11 4 5 5 6 7 7 7 7 5 8 9 9 12 13 12 14 13 11 9 9 10 11 8 7 8 9 9 9 9 9
5 5 6 6 6 5 6 5 5 4 4 4 5 9 8 8 5 4 5 5 7 8 8 9 10 12 13 13 16 14 13 12 12 10 9 11 11 8 8 8 8 9 9 9 9
5 6 6 5 5 6 7 9 9 11 8 10 9 9 8 6 4 5 5 6 6 8 10 9 13 14 12 11 10 10 11 12 10 8 9 10 10 9 8 8 8 9 9 10 9
5 6 6 6 6 6 8 9 8 8 12 7 8 8 6 6 8 6 4 8 8 10 8 10 12 10 9 9 10 10 12 12 10 8 9 10 11 10 9 8 7 7 9 8 10
6 6 6 6 6 8 10 8 6 7 11 9 7 7 8 6 7 6 4 7 8 9 10 12 10 7 8 10 11 11 11 12 12 9 8 10 12 11 9 8 7 7 6 7 7
6 6 6 6 10 10 9 5 5 6 13 9 9 8 8 8 8 5 6 5 8 11 10 10 8 9 10 11 9 12 9 9 10 12 14 10 15 11 11 10 8 8 7 7 7
6 6 6 6 11 10 7 5 4 6 19 8 9 6 7 9 9 9 7 8 9 9 9 12 10 10 11 11 9 12 9 10 11 14 15 13 16 14 11 11 10 9 8 7 7
6 6 6 8 10 7 5 5 7 13 19 10 8 10 11 10 10 8 9 7 8 8 10 10 7 8 9 8 8 8 10 11 12 14 19 14 15 13 12 11 10 9 8 7 7
6 6 7 7 9 6 6 8 13 17 9 11 11 10 11 11 10 10 10 11 13 14 15 11 11 7 7 11 9 10 14 19 20 20 21 13 16 13 10 9 8 8 8 8 8
6 6 8 6 6 6 8 11 17 12 11 9 10 10 11 10 10 9 10 12 9 11 13 16 17 10 7 9 11 12 14 18 23 22 19 13 17 13 8 8 7 6 7 7 8
7 10 9 6 5 6 10 16 14 11 9 10 10 12 12 9 9 10 10 11 10 9 15 15 16 9 8 8 10 13 16 12 16 15 19 17 14 10 8 8 7 7 7 8 8
10 11 9 5 4 7 12 12 10 7 8 8 12 11 13 11 12 11 11 9 11 9 8 12 17 10 9 9 9 11 10 17 16 22 23 18 17 15 11 10 9 9 8 8 8
12 12 8 4 6 10 13 11 9 7 7 9 11 11 11 12 11 12 12 9 9 10 9 11 13 13 10 12 14 14 15 14 15 17 20 20 16 12 11 11 10 9 8 8 7
12 14 7 6 12 12 13 9 7 7 6 8 8 9 11 11 12 12 12 10 7 8 12 10 13 16 14 10 10 11 13 13 18 19 17 18 17 10 11 11 9 9 8 7 7
12 13 6 8 15 14 10 9 8 9 8 8 9 8 9 11 14 12 11 7 7 9 11 10 14 18 17 13 10 13 12 12 13 14 17 19 17 10 9 9 8 9 8 7 7
12 13 12 11 10 12 12 12 11 6 7 8 9 8 11 11 10 12 11 8 7 7 6 8 13 15 18 16 13 14 12 12 13 17 16 16 15 12 10 10 9 8 8 8 7
11 13 12 15 13 12 12 11 11 11 8 9 10 10 11 13 12 12 10 9 8 7 8 10 15 13 13 12 12 12 13 12 14 14 17 15 14 12 11 10 9 8 7 8 7
14 13 11 12 11 12 12 12 11 10 11 11 12 10 11 12 12 13 11 11 11 10 11 9 15 14 15 12 12 13 12 12 12 12 13 13 14 9 9 8 9 8 8 8 8
11 10 12 12 13 14 13 11 11 11 10 10 10 11 11 10 8 9 8 8 9 11 12 12 14 15 17 13 14 17 14 13 13 11 11 15 12 10 10 10 9 9 8 8 7